Weather History for Glasgow, United Kingdom

Change the Weather History Date:

Friday, September 7, 2012

  Actual Average Record
Temperature  
Mean Temperature 60 °F -  
Max Temperature 62 °F 58 °F 71 °F (1998)
Min Temperature 59 °F 45 °F 39 °F (2003)
Degree Days  
Heating Degree Days 4    
Growing Degree Days 10 (Base 50)    
Moisture  
Dew Point 59 °F    
Average Humidity 95    
Maximum Humidity 100    
Minimum Humidity 88    
Precipitation  
Precipitation 0.00 in - - ()
Sea Level Pressure  
Sea Level Pressure 30.11 in    
Wind  
Wind Speed 11 mph ()    
Max Wind Speed 17 mph    
Max Gust Speed -    
Visibility 5.9 miles    
Events Rain    
Averages and records for this station are not official NWS values.
T = Trace of Precipitation, MM = Missing Value Source: Averaged Metar Reports

Daily Weather History Graph

Daily Weather History Graph

Search for Another Location

Airport:

Trip Planner

Search our weather history database for the weather conditions in past years. The results will help you decide how hot, cold, wet, or windy it might be!

Date:

Astronomy

Sep. 07, 2012 Rise Set
Actual Time 6:34 AM BST 7:55 PM BST
Civil Twilight 5:56 AM BST 8:33 PM BST
Nautical Twilight 5:08 AM BST 9:20 PM BST
Astronomical Twilight 4:15 AM BST 10:13 PM BST
Moon 10:20 PM BST (9/7) 2:33 PM BST (9/7)
Length of Visible Light 14h 37m
Length of Day
13h 20m
Waning Gibbous, 60% of the Moon is Illuminated
Sep 7
Waning Gibbous
Sep 8
Last Quarter
Sep 16
New
Sep 22
First Quarter
Sep 30
Full

Hourly Weather History & Observations

Time (BST) Temp. Dew Point Humidity Pressure Visibility Wind Dir Wind Speed Gust Speed Precip Events Conditions
12:20 AM 59.0 °F 57.2 °F 94% 30.06 in 4.3 mi West 10.4 mph - N/A Rain Light Rain
12:50 AM 59.0 °F 57.2 °F 94% 30.06 in 3.7 mi West 9.2 mph - N/A   Mostly Cloudy
1:20 AM 59.0 °F 57.2 °F 94% 30.09 in 3.7 mi West 9.2 mph - N/A Rain Light Rain
2:20 AM 59.0 °F 59.0 °F 100% 30.06 in 6.2 mi WSW 16.1 mph - N/A   Overcast
2:50 AM 59.0 °F 59.0 °F 100% 30.06 in 6.2 mi West 13.8 mph - N/A   Overcast
3:20 AM 59.0 °F 59.0 °F 100% 30.06 in 6.2 mi WSW 16.1 mph - N/A   Mostly Cloudy
3:50 AM 59.0 °F 59.0 °F 100% 30.06 in 6.2 mi WSW 17.3 mph - N/A   Mostly Cloudy
4:20 AM 59.0 °F 59.0 °F 100% 30.06 in 6.2 mi WSW 13.8 mph - N/A Rain Light Rain
4:50 AM 59.0 °F 59.0 °F 100% 30.06 in 2.5 mi WSW 16.1 mph - N/A   Haze
5:20 AM 59.0 °F 59.0 °F 100% 30.06 in 6.2 mi WSW 16.1 mph - N/A Rain Light Rain
5:50 AM 59.0 °F 59.0 °F 100% 30.06 in 5.0 mi WSW 12.7 mph - N/A   Light Drizzle
6:20 AM 59.0 °F 59.0 °F 100% 30.06 in 3.7 mi WSW 12.7 mph - N/A   Overcast
6:50 AM 59.0 °F 59.0 °F 100% 30.06 in 5.6 mi WSW 13.8 mph - N/A   Mostly Cloudy
7:20 AM 59.0 °F 59.0 °F 100% 30.06 in 6.2 mi WSW 12.7 mph - N/A   Mostly Cloudy
7:50 AM 59.0 °F 59.0 °F 100% 30.06 in 6.2 mi West 12.7 mph - N/A   Mostly Cloudy
8:20 AM 60.8 °F 59.0 °F 94% 30.09 in 6.2 mi WSW 11.5 mph - N/A   Mostly Cloudy
8:50 AM 60.8 °F 59.0 °F 94% 30.09 in 6.2 mi West 11.5 mph - N/A   Mostly Cloudy
9:20 AM 60.8 °F 59.0 °F 94% 30.09 in 6.2 mi West 9.2 mph - N/A   Mostly Cloudy
9:50 AM 60.8 °F 59.0 °F 94% 30.09 in 6.2 mi West 12.7 mph - N/A   Mostly Cloudy
10:20 AM 60.8 °F 59.0 °F 94% 30.12 in 6.2 mi West 9.2 mph - N/A   Mostly Cloudy
10:50 AM 60.8 °F 59.0 °F 94% 30.12 in 6.2 mi West 11.5 mph - N/A   Mostly Cloudy
11:20 AM 62.6 °F 59.0 °F 88% 30.12 in 6.2 mi WSW 11.5 mph - N/A   Mostly Cloudy
11:50 AM 62.6 °F 59.0 °F 88% 30.12 in 6.2 mi WSW 12.7 mph - N/A   Mostly Cloudy
12:20 PM 62.6 °F 59.0 °F 88% 30.12 in 6.2 mi West 11.5 mph - N/A   Mostly Cloudy
12:50 PM 62.6 °F 59.0 °F 88% 30.12 in 6.2 mi WSW 13.8 mph - N/A   Mostly Cloudy
1:20 PM 62.6 °F 59.0 °F 88% 30.12 in 6.2 mi WSW 15.0 mph - N/A   Mostly Cloudy
1:50 PM 62.6 °F 59.0 °F 88% 30.12 in 6.2 mi WSW 16.1 mph - N/A   Mostly Cloudy
2:20 PM 62.6 °F 59.0 °F 88% 30.15 in 6.2 mi WSW 12.7 mph - N/A   Mostly Cloudy
2:50 PM 62.6 °F 59.0 °F 88% 30.15 in 6.2 mi WSW 13.8 mph - N/A   Mostly Cloudy
3:20 PM 62.6 °F 59.0 °F 88% 30.15 in 6.2 mi WSW 13.8 mph - N/A   Mostly Cloudy
3:50 PM 62.6 °F 59.0 °F 88% 30.15 in 6.2 mi WSW 11.5 mph - N/A   Mostly Cloudy
4:20 PM 62.6 °F 59.0 °F 88% 30.15 in 6.2 mi SW 11.5 mph - N/A   Mostly Cloudy
4:50 PM 60.8 °F 59.0 °F 94% 30.15 in 6.2 mi WSW 12.7 mph - N/A   Mostly Cloudy
5:20 PM 62.6 °F 59.0 °F 88% 30.12 in 6.2 mi SW 11.5 mph - N/A   Mostly Cloudy
5:50 PM 60.8 °F 59.0 °F 94% 30.12 in 6.2 mi SW 10.4 mph - N/A   Mostly Cloudy
6:20 PM 60.8 °F 59.0 °F 94% 30.12 in 6.2 mi WSW 12.7 mph - N/A   Mostly Cloudy
6:50 PM 60.8 °F 59.0 °F 94% 30.12 in 6.2 mi WSW 12.7 mph - N/A   Overcast
7:20 PM 60.8 °F 59.0 °F 94% 30.12 in 6.2 mi WSW 8.1 mph - N/A   Overcast
7:50 PM 60.8 °F 59.0 °F 94% 30.12 in 6.2 mi WSW 10.4 mph - N/A   Overcast
8:20 PM 60.8 °F 57.2 °F 88% 30.12 in 6.2 mi WSW 9.2 mph - N/A   Overcast
8:50 PM 59.0 °F 57.2 °F 94% 30.15 in 6.2 mi SW 9.2 mph - N/A   Overcast
9:20 PM 59.0 °F 59.0 °F 100% 30.15 in 6.2 mi SW 10.4 mph - N/A   Overcast
9:50 PM 59.0 °F 59.0 °F 100% 30.15 in 6.2 mi SW 10.4 mph - N/A   Mostly Cloudy
10:20 PM 59.0 °F 59.0 °F 100% 30.15 in 6.2 mi SW 12.7 mph - N/A   Mostly Cloudy
10:50 PM 59.0 °F 59.0 °F 100% 30.15 in 6.2 mi WSW 11.5 mph - N/A   Mostly Cloudy
11:50 PM 59.0 °F 59.0 °F 100% 30.12 in 6.2 mi WSW 11.5 mph - N/A   Mostly Cloudy